Flag for U.S.A. Weather past 2 weeks in Ontario, Oregon, U.S.A.

Now
88 °F

Sunny.


Feels Like: 85 °F
Forecast: 58 / 93 °F
Wind: No wind

Location: Ontario Municipal Airport

Current Time: Aug 28, 2015 at 4:55:54 PM

Latest Report: Aug 28, 2015 at 3:53 PM


Visibility: 10 mi

Pressure: 29.90 "Hg (27.78 "Hg at 656m altitude)

Humidity: 20%

Dew point: 42 °F

Location of OntarioLocation

Historic Weather in Ontario — Graph

°F

Ontario temperature yesterday

Maximum temperature yesterday: 93 °F (at 4:53 PM)
Minimum temperature yesterday: 65 °F (at 7:53 AM)
Average temperature yesterday: 79 °F

Past Weeks' High & Low Weather Summary

 TemperatureHumidityPressure
High104 °F (Aug 13, 5:53 PM)75% (Aug 20, 6:53 AM)30.18 "Hg (Aug 20, 6:53 AM)
Low45 °F (Aug 23, 6:53 AM)9% (Aug 14, 6:53 PM)29.67 "Hg (Aug 20, 8:53 PM)
Average74 °F34%29.93 "Hg
* Reported Aug 13 3:53 PM — Aug 28 3:53 PM, Ontario, Weather by CustomWeather, © 2015

Note: Actual official high and low records may vary slightly from our data, if they occured in-between our weather recording intervals... More about our weather records

Advertising

Ontario weather history for previous 24 hours

 ConditionsComfort  
Time TempWeatherWind HumidityBarometerVisibility
3:53 PM
Fri, Aug 28
88 °FSunny.No wind20%29.90 "Hg10 mi
2:53 PM86 °FSunny.5 mph26%29.92 "Hg10 mi
1:53 PM87 °FSunny.No wind23%29.93 "Hg10 mi
12:53 PM86 °FSunny.3 mph24%29.96 "Hg10 mi
11:53 AM80 °FSunny.3 mph30%29.98 "Hg10 mi
10:53 AM74 °FSunny.3 mph37%30.00 "Hg9 mi
9:53 AM68 °FSunny.No wind53%30.00 "Hg9 mi
8:53 AM62 °FClear.3 mph67%29.99 "Hg8 mi
7:53 AM56 °FClear.No wind65%29.98 "Hg10 mi
6:53 AM56 °FClear.No wind65%29.96 "Hg10 mi
5:53 AM57 °FClear.7 mph62%29.95 "Hg10 mi
4:53 AM59 °FClear.3 mph56%29.95 "Hg10 mi
3:53 AM61 °FClear.No wind56%29.95 "Hg10 mi
2:53 AM64 °FClear.6 mph49%29.94 "Hg10 mi
1:53 AM61 °FClear.3 mph65%29.94 "Hg10 mi
12:53 AM65 °FClear.No wind54%29.94 "Hg10 mi
11:53 PM
Thu, Aug 27
67 °FClear.No wind57%29.94 "Hg10 mi
10:53 PM70 °FClear.No wind47%29.94 "Hg10 mi
9:53 PM76 °FSunny.No wind36%29.94 "Hg10 mi
8:53 PM78 °FSunny.No wind36%29.93 "Hg10 mi
7:53 PM86 °FSunny.5 mph27%29.92 "Hg10 mi
6:53 PM91 °FSunny.9 mph21%29.92 "Hg10 mi
5:53 PM93 °FSunny.No wind14%29.93 "Hg10 mi
4:53 PM93 °FSunny.3 mph15%29.95 "Hg10 mi
Weather by CustomWeather, © 2015

See weather overviewHow to use our weather pages